User: anonymous   Login
Location: Unspecified
(0.0000°N, 0.0000°E)
Time: 07:53:54
(UTC+00:00)
Language:

SR - Orbit

View from above orbital plane
View from above orbital plane
View from above satellite
View from above satellite

Ground track
Ground track

The orbit data is extracted from the following two-line orbital elements,

1 00046U 60007B   21292.92028143  .00000158  00000-0  54647-4 0  9992
2 00046  66.6896 163.8078 0204094 127.6098 234.3734 14.49450374210042
Epoch (UTC): 19 October 2021 22:05:12
Eccentricity: 0.0204094
inclination: 66.6896°
perigee height: 582 km
apogee height: 872 km
right ascension of ascending node: 163.8078°
argument of perigee: 127.6098°
revolutions per day: 14.49450374
mean anomaly at epoch: 234.3734°
orbit number at epoch: 21004

The dashed part of the orbit path shows where the satellite is in the earth's shadow,  

DLR